TimeEDT,TemperatureF,Dew PointF,Humidity,Sea Level PressureIn,VisibilityMPH,Wind Direction,Wind SpeedMPH,Gust SpeedMPH,PrecipitationIn,Events,Conditions,WindDirDegrees,DateUTC
12:15 AM,50.0,42.8,76,30.10,10.0,Calm,Calm,-,N/A,,Unknown,0,2013-04-08 04:15:00
12:35 AM,48.2,42.8,82,30.10,10.0,Calm,Calm,-,N/A,,Scattered Clouds,0,2013-04-08 04:35:00
12:55 AM,48.2,42.8,82,30.09,10.0,Calm,Calm,-,N/A,,Mostly Cloudy,0,2013-04-08 04:55:00
1:15 AM,48.2,42.8,82,30.09,10.0,Calm,Calm,-,N/A,,Mostly Cloudy,0,2013-04-08 05:15:00
1:35 AM,46.4,41.0,81,30.09,10.0,Calm,Calm,-,N/A,,Mostly Cloudy,0,2013-04-08 05:35:00
1:55 AM,46.4,41.0,81,30.09,10.0,Calm,Calm,-,N/A,,Mostly Cloudy,0,2013-04-08 05:55:00
2:15 AM,46.4,42.8,87,30.09,10.0,Calm,Calm,-,N/A,,Overcast,0,2013-04-08 06:15:00
2:35 AM,46.4,41.0,81,30.08,10.0,Calm,Calm,-,N/A,,Overcast,0,2013-04-08 06:35:00
2:55 AM,44.6,41.0,87,30.08,10.0,Calm,Calm,-,N/A,,Overcast,0,2013-04-08 06:55:00
3:15 AM,46.4,41.0,81,30.09,10.0,Calm,Calm,-,N/A,,Overcast,0,2013-04-08 07:15:00
3:35 AM,44.6,41.0,87,30.09,10.0,Calm,Calm,-,N/A,,Overcast,0,2013-04-08 07:35:00
3:55 AM,44.6,41.0,87,30.09,10.0,Calm,Calm,-,N/A,,Overcast,0,2013-04-08 07:55:00
4:15 AM,44.6,41.0,87,30.08,10.0,Calm,Calm,-,N/A,,Overcast,0,2013-04-08 08:15:00
4:35 AM,44.6,41.0,87,30.09,10.0,Calm,Calm,-,N/A,,Mostly Cloudy,0,2013-04-08 08:35:00
4:55 AM,44.6,41.0,87,30.09,10.0,Calm,Calm,-,N/A,,Mostly Cloudy,0,2013-04-08 08:55:00
5:15 AM,44.6,41.0,87,30.09,10.0,Calm,Calm,-,N/A,,Mostly Cloudy,0,2013-04-08 09:15:00
5:35 AM,44.6,41.0,87,30.10,10.0,Calm,Calm,-,N/A,,Overcast,0,2013-04-08 09:35:00
5:55 AM,44.6,41.0,87,30.10,10.0,Calm,Calm,-,N/A,,Overcast,0,2013-04-08 09:55:00
6:15 AM,44.6,41.0,87,30.10,10.0,Calm,Calm,-,N/A,,Overcast,0,2013-04-08 10:15:00
6:35 AM,44.6,41.0,87,30.10,10.0,Calm,Calm,-,N/A,,Overcast,0,2013-04-08 10:35:00
6:55 AM,44.6,41.0,87,30.11,10.0,Calm,Calm,-,N/A,,Overcast,0,2013-04-08 10:55:00
7:15 AM,46.4,42.8,87,30.12,10.0,Calm,Calm,-,N/A,,Mostly Cloudy,0,2013-04-08 11:15:00
7:35 AM,44.6,41.0,87,30.12,10.0,Calm,Calm,-,N/A,,Scattered Clouds,0,2013-04-08 11:35:00
7:55 AM,46.4,42.8,87,30.13,10.0,Calm,Calm,-,N/A,,Mostly Cloudy,0,2013-04-08 11:55:00
8:15 AM,46.4,42.8,87,30.13,10.0,Calm,Calm,-,N/A,,Mostly Cloudy,0,2013-04-08 12:15:00
8:35 AM,46.4,42.8,87,30.13,10.0,Calm,Calm,-,N/A,,Mostly Cloudy,0,2013-04-08 12:35:00
8:55 AM,48.2,42.8,82,30.13,10.0,Calm,Calm,-,N/A,,Mostly Cloudy,0,2013-04-08 12:55:00
9:15 AM,50.0,44.6,82,30.14,10.0,Calm,Calm,-,N/A,,Overcast,0,2013-04-08 13:15:00
9:35 AM,53.6,46.4,77,30.13,10.0,Calm,Calm,-,N/A,,Mostly Cloudy,0,2013-04-08 13:35:00
9:55 AM,59.0,46.4,63,30.13,10.0,Calm,Calm,-,N/A,,Mostly Cloudy,0,2013-04-08 13:55:00
10:15 AM,62.6,46.4,55,30.13,10.0,Calm,Calm,-,N/A,,Mostly Cloudy,0,2013-04-08 14:15:00
10:35 AM,64.4,46.4,52,30.14,10.0,Calm,Calm,-,N/A,,Mostly Cloudy,0,2013-04-08 14:35:00
10:55 AM,64.4,46.4,52,30.13,10.0,Calm,Calm,-,N/A,,Mostly Cloudy,0,2013-04-08 14:55:00
11:15 AM,66.2,46.4,49,30.13,10.0,SW,6.9,-,N/A,,Mostly Cloudy,230,2013-04-08 15:15:00
11:35 AM,68.0,48.2,49,30.12,10.0,SW,15.0,-,N/A,,Partly Cloudy,220,2013-04-08 15:35:00
11:55 AM,69.8,50.0,49,30.12,10.0,SW,13.8,21.9,N/A,,Partly Cloudy,230,2013-04-08 15:55:00
12:15 PM,71.6,48.2,43,30.12,10.0,SW,12.7,17.3,N/A,,Scattered Clouds,230,2013-04-08 16:15:00
12:35 PM,71.6,48.2,43,30.11,10.0,SSW,16.1,21.9,N/A,,Scattered Clouds,200,2013-04-08 16:35:00
12:55 PM,73.4,48.2,41,30.11,10.0,SW,18.4,23.0,N/A,,Partly Cloudy,220,2013-04-08 16:55:00
1:15 PM,71.6,48.2,43,30.10,10.0,WSW,11.5,-,N/A,,Mostly Cloudy,250,2013-04-08 17:15:00
1:35 PM,71.6,48.2,43,30.10,10.0,WSW,12.7,23.0,N/A,,Mostly Cloudy,240,2013-04-08 17:35:00
1:55 PM,71.6,50.0,46,30.09,10.0,WSW,12.7,-,N/A,,Mostly Cloudy,250,2013-04-08 17:55:00
2:15 PM,71.6,50.0,46,30.08,10.0,WSW,11.5,16.1,N/A,,Mostly Cloudy,250,2013-04-08 18:15:00
2:35 PM,73.4,48.2,41,30.08,10.0,WSW,15.0,24.2,N/A,,Mostly Cloudy,240,2013-04-08 18:35:00
2:55 PM,73.4,48.2,41,30.07,10.0,West,12.7,18.4,N/A,,Scattered Clouds,260,2013-04-08 18:55:00
3:15 PM,75.2,48.2,38,30.07,10.0,WSW,11.5,19.6,N/A,,Scattered Clouds,240,2013-04-08 19:15:00
3:35 PM,73.4,48.2,41,30.06,10.0,WSW,16.1,19.6,N/A,,Scattered Clouds,250,2013-04-08 19:35:00
3:55 PM,75.2,48.2,38,30.06,10.0,West,10.4,-,N/A,,Scattered Clouds,260,2013-04-08 19:55:00
4:15 PM,75.2,48.2,38,30.06,10.0,WSW,15.0,20.7,N/A,,Scattered Clouds,250,2013-04-08 20:15:00
4:35 PM,73.4,48.2,41,30.06,10.0,WSW,9.2,16.1,N/A,,Partly Cloudy,250,2013-04-08 20:35:00
4:55 PM,73.4,48.2,41,30.05,10.0,WSW,13.8,-,N/A,,Clear,240,2013-04-08 20:55:00
5:15 PM,73.4,48.2,41,30.06,10.0,WSW,10.4,-,N/A,,Clear,250,2013-04-08 21:15:00
5:35 PM,73.4,48.2,41,30.05,10.0,WSW,9.2,-,N/A,,Clear,240,2013-04-08 21:35:00
5:55 PM,73.4,48.2,41,30.05,10.0,SW,9.2,-,N/A,,Clear,230,2013-04-08 21:55:00
6:15 PM,71.6,48.2,43,30.05,10.0,SW,9.2,-,N/A,,Clear,230,2013-04-08 22:15:00
6:35 PM,71.6,48.2,43,30.05,10.0,WSW,10.4,-,N/A,,Clear,240,2013-04-08 22:35:00
6:55 PM,71.6,48.2,43,30.05,10.0,WSW,6.9,-,N/A,,Clear,250,2013-04-08 22:55:00
7:15 PM,71.6,48.2,43,30.05,10.0,Calm,Calm,-,N/A,,Clear,0,2013-04-08 23:15:00
7:35 PM,71.6,48.2,43,30.04,10.0,SW,3.5,-,N/A,,Clear,230,2013-04-08 23:35:00
7:55 PM,68.0,48.2,49,30.05,10.0,Calm,Calm,-,N/A,,Clear,0,2013-04-08 23:55:00
8:15 PM,68.0,50.0,52,30.05,10.0,Calm,Calm,-,N/A,,Clear,0,2013-04-09 00:15:00
8:35 PM,66.2,50.0,56,30.06,10.0,Calm,Calm,-,N/A,,Mostly Cloudy,0,2013-04-09 00:35:00
8:55 PM,66.2,50.0,56,30.06,10.0,Calm,Calm,-,N/A,,Overcast,0,2013-04-09 00:55:00
9:15 PM,64.4,50.0,59,30.06,10.0,Calm,Calm,-,N/A,,Mostly Cloudy,0,2013-04-09 01:15:00
9:35 PM,62.6,50.0,63,30.07,10.0,Calm,Calm,-,N/A,,Scattered Clouds,0,2013-04-09 01:35:00
9:55 PM,60.8,50.0,68,30.07,10.0,Calm,Calm,-,N/A,,Mostly Cloudy,0,2013-04-09 01:55:00
10:15 PM,57.2,51.8,82,30.08,10.0,Calm,Calm,-,N/A,,Mostly Cloudy,0,2013-04-09 02:15:00
10:35 PM,57.2,50.0,77,30.08,10.0,Calm,Calm,-,N/A,,Mostly Cloudy,0,2013-04-09 02:35:00
10:55 PM,55.4,50.0,82,30.09,10.0,Calm,Calm,-,N/A,,Mostly Cloudy,0,2013-04-09 02:55:00
11:15 PM,55.4,50.0,82,30.09,10.0,Calm,Calm,-,N/A,,Scattered Clouds,0,2013-04-09 03:15:00
11:35 PM,55.4,50.0,82,30.10,10.0,Calm,Calm,-,N/A,,Unknown,0,2013-04-09 03:35:00
11:55 PM,53.6,50.0,88,30.11,10.0,Calm,Calm,-,N/A,,Unknown,0,2013-04-09 03:55:00